When you browse on this site, cookies collect data to enhance your experience and personalize the content and advertising you see.
Visit our Privacy Policy to learn more. By continuing to use the site, you agree to this use of cookies and data.
  • In Schweiz
  • Länderverzeichnis
  • Für 7 Tage
  • Wassertemperatur
  • Wetterkarte
  • Widgets
  • user-avatar
    Anmelden

    Stündliche Wetter Mons

    Heute, 17 Oktober, Donnerstag

    Zeit Temperatur Niederschläge Wind Luftdruck Luftfeuchtigkeit
    00:00 +12°C° 0.4 mm 7 m/S 753 mmHg 91%
    01:00 +13°C° 0 mm 6 m/S 753 mmHg 92%
    02:00 +13°C° 0 mm 5 m/S 753 mmHg 92%
    03:00 +13°C° 0 mm 4 m/S 753 mmHg 93%
    04:00 +12°C° 0 mm 3 m/S 754 mmHg 94%
    05:00 +12°C° 0 mm 3 m/S 754 mmHg 94%
    06:00 +12°C° 0 mm 2 m/S 754 mmHg 95%
    07:00 +12°C° 0 mm 3 m/S 754 mmHg 92%
    08:00 +13°C° 0 mm 3 m/S 755 mmHg 89%
    09:00 +14°C° 0 mm 3 m/S 755 mmHg 87%
    10:00 +14°C° 0.1 mm 4 m/S 755 mmHg 85%
    11:00 +14°C° 0.1 mm 4 m/S 755 mmHg 83%
    12:00 +14°C° 0.1 mm 4 m/S 755 mmHg 81%
    13:00 +14°C° 0.1 mm 4 m/S 755 mmHg 80%
    14:00 +14°C° 0.1 mm 4 m/S 754 mmHg 79%
    15:00 +14°C° 0.1 mm 4 m/S 754 mmHg 78%
    16:00 +13°C° 0 mm 4 m/S 754 mmHg 81%
    17:00 +13°C° 0 mm 4 m/S 754 mmHg 85%
    18:00 +12°C° 0 mm 3 m/S 754 mmHg 88%
    19:00 +12°C° 0.1 mm 4 m/S 754 mmHg 88%
    20:00 +12°C° 0.1 mm 4 m/S 754 mmHg 89%
    21:00 +12°C° 0.1 mm 4 m/S 754 mmHg 89%
    22:00 +12°C° 0.1 mm 5 m/S 754 mmHg 88%
    23:00 +12°C° 0.1 mm 5 m/S 754 mmHg 88%

    Morgen, 18 Oktober, Freitag

    Zeit Temperatur Niederschläge Wind Luftdruck Luftfeuchtigkeit
    00:00 +12°C° 0.1 mm 5 m/S 754 mmHg 87%
    01:00 +12°C° 0.3 mm 5 m/S 753 mmHg 88%
    02:00 +11°C° 0.3 mm 6 m/S 753 mmHg 89%
    03:00 +12°C° 0.3 mm 7 m/S 753 mmHg 90%
    04:00 +11°C° 0 mm 7 m/S 752 mmHg 89%
    05:00 +11°C° 0 mm 7 m/S 752 mmHg 87%
    06:00 +10°C° 0 mm 7 m/S 752 mmHg 86%
    07:00 +11°C° 0.3 mm 7 m/S 752 mmHg 84%
    08:00 +11°C° 0.3 mm 7 m/S 752 mmHg 82%
    09:00 +12°C° 0.3 mm 7 m/S 753 mmHg 80%
    10:00 +12°C° 0 mm 8 m/S 753 mmHg 75%
    11:00 +13°C° 0 mm 8 m/S 753 mmHg 70%
    12:00 +15°C° 0 mm 8 m/S 753 mmHg 64%
    13:00 +15°C° 0 mm 7 m/S 753 mmHg 64%
    14:00 +15°C° 0 mm 6 m/S 753 mmHg 64%
    15:00 +14°C° 0 mm 6 m/S 753 mmHg 64%
    16:00 +13°C° 0 mm 5 m/S 753 mmHg 68%
    17:00 +12°C° 0 mm 4 m/S 753 mmHg 72%
    18:00 +11°C° 0 mm 4 m/S 753 mmHg 76%
    19:00 +11°C° 0 mm 4 m/S 753 mmHg 77%
    20:00 +10°C° 0 mm 5 m/S 753 mmHg 78%
    21:00 +10°C° 0 mm 5 m/S 753 mmHg 80%
    22:00 +10°C° 0 mm 5 m/S 753 mmHg 81%
    23:00 +10°C° 0 mm 5 m/S 752 mmHg 81%

    übermorgen, 19 Oktober, Samstag

    Zeit Temperatur Niederschläge Wind Luftdruck Luftfeuchtigkeit
    00:00 +10°C° 0 mm 5 m/S 752 mmHg 82%
    01:00 +12°C° 0 mm 5 m/S 752 mmHg 82%
    02:00 +12°C° 0 mm 5 m/S 752 mmHg 82%
    03:00 +12°C° 0 mm 5 m/S 751 mmHg 83%
    04:00 +12°C° 0.3 mm 5 m/S 751 mmHg 85%
    05:00 +10°C° 0.3 mm 5 m/S 751 mmHg 88%
    06:00 +10°C° 0.3 mm 5 m/S 751 mmHg 91%
    07:00 +12°C° 0.4 mm 5 m/S 751 mmHg 88%
    08:00 +12°C° 0.4 mm 5 m/S 751 mmHg 86%
    09:00 +12°C° 0.4 mm 5 m/S 751 mmHg 84%
    10:00 +13°C° 0.1 mm 6 m/S 751 mmHg 80%
    11:00 +14°C° 0.1 mm 6 m/S 751 mmHg 76%
    12:00 +15°C° 0.1 mm 6 m/S 751 mmHg 73%
    13:00 +14°C° 0 mm 5 m/S 751 mmHg 72%
    14:00 +14°C° 0 mm 4 m/S 751 mmHg 72%
    15:00 +14°C° 0 mm 4 m/S 751 mmHg 72%
    16:00 +13°C° 0 mm 4 m/S 751 mmHg 76%
    17:00 +12°C° 0 mm 3 m/S 752 mmHg 81%
    18:00 +11°C° 0 mm 3 m/S 752 mmHg 86%
    19:00 +10°C° 0 mm 3 m/S 752 mmHg 88%
    20:00 +10°C° 0 mm 3 m/S 753 mmHg 89%
    21:00 +10°C° 0 mm 3 m/S 753 mmHg 91%
    22:00 +9°C° 0 mm 3 m/S 754 mmHg 92%
    23:00 +9°C° 0 mm 3 m/S 754 mmHg 92%

    20 Oktober, Sonntag

    Zeit Temperatur Niederschläge Wind Luftdruck Luftfeuchtigkeit
    00:00 +9°C° 0 mm 3 m/S 754 mmHg 93%
    01:00 +9°C° 0 mm 3 m/S 754 mmHg 93%
    02:00 +8°C° 0 mm 3 m/S 754 mmHg 93%
    03:00 +8°C° 0 mm 2 m/S 755 mmHg 93%
    04:00 +8°C° 0 mm 2 m/S 755 mmHg 93%
    05:00 +8°C° 0 mm 2 m/S 755 mmHg 93%
    06:00 +8°C° 0 mm 2 m/S 756 mmHg 93%
    07:00 +9°C° 0 mm 2 m/S 756 mmHg 89%
    08:00 +10°C° 0 mm 2 m/S 756 mmHg 85%
    09:00 +13°C° 0 mm 2 m/S 757 mmHg 81%
    10:00 +14°C° 0 mm 2 m/S 757 mmHg 76%
    11:00 +15°C° 0 mm 2 m/S 757 mmHg 71%
    12:00 +16°C° 0 mm 2 m/S 758 mmHg 67%
    13:00 +16°C° 0 mm 1 m/S 758 mmHg 67%
    14:00 +16°C° 0 mm 1 m/S 758 mmHg 67%
    15:00 +16°C° 0 mm 1 m/S 758 mmHg 67%
    16:00 +14°C° 0 mm 1 m/S 758 mmHg 73%
    17:00 +13°C° 0 mm 1 m/S 759 mmHg 79%
    18:00 +11°C° 0 mm 1 m/S 759 mmHg 84%
    19:00 +11°C° 0 mm 1 m/S 760 mmHg 85%
    20:00 +11°C° 0 mm 1 m/S 760 mmHg 87%
    21:00 +10°C° 0 mm 1 m/S 760 mmHg 88%
    22:00 +10°C° 0 mm 1 m/S 761 mmHg 88%
    23:00 +10°C° 0 mm 1 m/S 761 mmHg 89%

    21 Oktober, Montag

    Zeit Temperatur Niederschläge Wind Luftdruck Luftfeuchtigkeit
    00:00 +10°C° 0 mm 1 m/S 761 mmHg 89%
    01:00 +10°C° 0 mm 1 m/S 761 mmHg 90%
    02:00 +9°C° 0 mm 1 m/S 761 mmHg 91%
    03:00 +8°C° 0 mm 2 m/S 761 mmHg 91%
    04:00 +8°C° 0 mm 2 m/S 761 mmHg 92%
    05:00 +8°C° 0 mm 2 m/S 762 mmHg 93%
    06:00 +8°C° 0 mm 2 m/S 762 mmHg 93%
    07:00 +9°C° 0 mm 3 m/S 762 mmHg 90%
    08:00 +10°C° 0 mm 3 m/S 762 mmHg 86%
    09:00 +11°C° 0 mm 4 m/S 763 mmHg 83%
    10:00 +12°C° 0 mm 4 m/S 763 mmHg 81%
    11:00 +13°C° 0 mm 5 m/S 763 mmHg 78%
    12:00 +13°C° 0 mm 5 m/S 763 mmHg 76%
    13:00 +13°C° 0 mm 5 m/S 762 mmHg 77%
    14:00 +13°C° 0 mm 5 m/S 762 mmHg 78%
    15:00 +13°C° 0 mm 5 m/S 762 mmHg 78%
    16:00 +13°C° 0.1 mm 5 m/S 762 mmHg 81%
    17:00 +12°C° 0.1 mm 5 m/S 762 mmHg 84%
    18:00 +12°C° 0.1 mm 5 m/S 762 mmHg 86%
    19:00 +12°C° 0 mm 5 m/S 762 mmHg 87%
    20:00 +12°C° 0 mm 5 m/S 762 mmHg 88%
    21:00 +12°C° 0 mm 5 m/S 762 mmHg 88%
    22:00 +12°C° 0 mm 5 m/S 762 mmHg 89%
    23:00 +12°C° 0 mm 5 m/S 762 mmHg 90%

    22 Oktober, Dienstag

    Zeit Temperatur Niederschläge Wind Luftdruck Luftfeuchtigkeit
    00:00 +11°C° 0 mm 6 m/S 762 mmHg 91%
    01:00 +11°C° 0 mm 6 m/S 761 mmHg 91%
    02:00 +13°C° 0 mm 6 m/S 761 mmHg 91%
    03:00 +13°C° 0 mm 6 m/S 760 mmHg 91%
    04:00 +12°C° 0 mm 5 m/S 760 mmHg 92%
    05:00 +12°C° 0 mm 5 m/S 761 mmHg 93%
    06:00 +12°C° 0 mm 4 m/S 761 mmHg 94%
    07:00 +13°C° 0 mm 4 m/S 761 mmHg 90%
    08:00 +14°C° 0 mm 4 m/S 761 mmHg 86%
    09:00 +15°C° 0 mm 4 m/S 761 mmHg 82%
    10:00 +18°C° 0 mm 4 m/S 760 mmHg 77%
    11:00 +19°C° 0 mm 4 m/S 760 mmHg 73%
    12:00 +21°C° 0 mm 4 m/S 760 mmHg 68%
    13:00 +21°C° 0 mm 3 m/S 760 mmHg 69%
    14:00 +22°C° 0 mm 3 m/S 759 mmHg 70%
    15:00 +22°C° 0 mm 3 m/S 759 mmHg 71%
    16:00 +20°C° 0 mm 3 m/S 759 mmHg 77%
    17:00 +19°C° 0 mm 3 m/S 759 mmHg 83%
    18:00 +17°C° 0 mm 3 m/S 759 mmHg 89%
    19:00 +16°C° 0 mm 3 m/S 759 mmHg 89%
    20:00 +16°C° 0 mm 3 m/S 759 mmHg 88%
    21:00 +15°C° 0 mm 2 m/S 759 mmHg 88%
    22:00 +15°C° 0 mm 2 m/S 759 mmHg 88%
    23:00 +14°C° 0 mm 1 m/S 759 mmHg 88%
    Mehr zeigen